Time+07,TemperatureF,Dew PointF,Humidity,Sea Level PressureIn,VisibilityMPH,Wind Direction,Wind SpeedMPH,Gust SpeedMPH,PrecipitationIn,Events,Conditions,WindDirDegrees,DateUTC
12:00 AM,84.2,75.2,74,29.62,6.2,SSE,3.5,-,N/A,,Mostly Cloudy,150,2013-06-18 17:00:00
12:30 AM,82.4,73.4,74,29.62,6.2,South,4.6,-,N/A,,Mostly Cloudy,190,2013-06-18 17:30:00
6:00 AM,82.4,77.0,84,29.62,6.2,SSE,3.5,-,N/A,,Mostly Cloudy,150,2013-06-18 23:00:00
7:00 AM,81,78,90,29.67,6,Calm,Calm,,,,Overcast,,2013-06-19 00:00:00
7:00 AM,84.2,78.8,84,29.62,6.2,SSE,3.5,-,N/A,,Mostly Cloudy,150,2013-06-19 00:00:00
7:30 AM,84.2,77.0,79,29.65,6.2,South,4.6,-,N/A,,Mostly Cloudy,180,2013-06-19 00:30:00
8:30 AM,86.0,77.0,74,29.65,6.2,SSW,8.1,-,N/A,,Scattered Clouds,200,2013-06-19 01:30:00
9:00 AM,87.8,77.0,70,29.65,6.2,South,10.4,-,N/A,,Scattered Clouds,190,2013-06-19 02:00:00
9:30 AM,87.8,77.0,70,29.68,6.2,SSW,6.9,-,N/A,,Scattered Clouds,200,2013-06-19 02:30:00
10:00 AM,87.8,75.2,66,29.65,6.2,SSW,10.4,-,N/A,,Scattered Clouds,210,2013-06-19 03:00:00
10:30 AM,89.6,73.4,59,29.65,6.2,WSW,11.5,-,N/A,,Partly Cloudy,250,2013-06-19 03:30:00
11:00 AM,89.6,73.4,59,29.65,6.2,WSW,11.5,-,N/A,,Scattered Clouds,240,2013-06-19 04:00:00
11:30 AM,89.6,73.4,59,29.65,6.2,WSW,9.2,-,N/A,,Scattered Clouds,240,2013-06-19 04:30:00
12:00 PM,91.4,73.4,55,29.62,6.2,WSW,10.4,-,N/A,,Partly Cloudy,240,2013-06-19 05:00:00
12:30 PM,91.4,73.4,55,29.62,6.2,WSW,19.6,-,N/A,,Partly Cloudy,240,2013-06-19 05:30:00
1:00 PM,93.2,73.4,52,29.59,6.2,West,17.3,-,N/A,,Scattered Clouds,270,2013-06-19 06:00:00
1:30 PM,93.2,73.4,52,29.59,6.2,WSW,20.7,-,N/A,,Scattered Clouds,240,2013-06-19 06:30:00
2:00 PM,93.2,73.4,52,29.59,6.2,WSW,17.3,-,N/A,,Scattered Clouds,240,2013-06-19 07:00:00
2:30 PM,89.6,73.4,59,29.59,5.6,SW,13.8,27.6,N/A,Rain-Thunderstorm,Thunderstorms and Rain,220,2013-06-19 07:30:00
3:00 PM,86.0,75.2,70,29.56,-9999.0,North,-9999.0,-,N/A,Rain,Rain,0,2013-06-19 08:00:00
3:30 PM,86.0,75.2,70,29.56,5.6,West,10.4,-,N/A,Rain,Rain,280,2013-06-19 08:30:00
4:00 PM,87.8,75.2,66,29.56,6.2,West,10.4,-,N/A,,Scattered Clouds,270,2013-06-19 09:00:00
4:30 PM,87.8,75.2,66,29.56,6.2,West,9.2,-,N/A,,Scattered Clouds,270,2013-06-19 09:30:00
5:00 PM,89.6,73.4,59,29.59,6.2,West,12.7,-,N/A,,Scattered Clouds,260,2013-06-19 10:00:00
5:30 PM,87.8,73.4,62,29.59,6.2,WSW,10.4,-,N/A,,Scattered Clouds,250,2013-06-19 10:30:00
6:00 PM,87.8,73.4,62,29.59,6.2,WSW,12.7,-,N/A,,Scattered Clouds,250,2013-06-19 11:00:00
6:30 PM,86.0,73.4,66,29.62,6.2,WSW,11.5,-,N/A,,Scattered Clouds,240,2013-06-19 11:30:00
7:00 PM,86.0,73.4,66,29.62,6.2,WSW,9.2,-,N/A,,Scattered Clouds,240,2013-06-19 12:00:00
7:30 PM,86.0,75.2,70,29.65,6.2,WSW,8.1,-,N/A,,Scattered Clouds,240,2013-06-19 12:30:00
8:00 PM,84.2,75.2,74,29.65,6.2,SSW,5.8,-,N/A,,Scattered Clouds,210,2013-06-19 13:00:00
8:30 PM,84.2,75.2,74,29.65,6.2,SSW,4.6,-,N/A,,Scattered Clouds,210,2013-06-19 13:30:00
9:00 PM,84.2,75.2,74,29.68,6.2,SSW,5.8,-,N/A,,Scattered Clouds,210,2013-06-19 14:00:00
10:30 PM,84.2,73.4,70,29.71,6.2,WSW,6.9,-,N/A,,Scattered Clouds,240,2013-06-19 15:30:00
11:00 PM,84.2,73.4,70,29.71,6.2,SW,6.9,-,N/A,,Scattered Clouds,230,2013-06-19 16:00:00
11:30 PM,84.2,75.2,74,29.68,6.2,WSW,8.1,-,N/A,,Scattered Clouds,240,2013-06-19 16:30:00